User: anonymous   Login
Location: Unspecified
(0.0000°N, 0.0000°E)
Time: 22:25:17
(UTC+00:00)
Language:

STARLINK-34558 - Orbit

View from above orbital plane
View from above orbital plane
View from above satellite
View from above satellite

Ground track
Ground track

The orbit is defined by the following mean orbital elements,

1 64721U          26145.35062794 +.00000000 +00000-0 +21313-3 0 00000
2 64721  70.0002 121.1683 0003414 266.2263  93.8506 14.98336168    02
Epoch (UTC): 25 May 2026 08:24:54
Eccentricity: 0.0003414
inclination: 70.0002°
perigee height: 570 km
apogee height: 574 km
right ascension of ascending node: 121.1683°
argument of perigee: 266.2263°
revolutions per day: 14.98336168
mean anomaly at epoch: 93.8506°

The dashed part of the orbit path shows where the satellite is in the earth's shadow,  

DLR